Kuantan, Malaysia

11:19 AM +08 on October 16, 2019 (GMT +0800)
Kuantan

Weather History for WMKD - August, 2019

Change the Weather History Date:

Thursday, August 29, 2019

  Actual Average Record
Temperature  
Mean Temperature 82 °F -  
Max Temperature 91 °F 90 °F - ()
Min Temperature 73 °F 72 °F - ()
Cooling Degree Days 17    
Growing Degree Days 32 (Base 50)    
Moisture  
Dew Point 74 °F    
Average Humidity 84    
Maximum Humidity 94    
Minimum Humidity 60    
Precipitation  
Precipitation 0.12 in 0.30 in - ()
Sea Level Pressure  
Sea Level Pressure 29.80 in    
Wind  
Wind Speed 3 mph ()    
Max Wind Speed 8 mph    
Max Gust Speed -    
Visibility 6.1 miles    
Events Rain    
T = Trace of Precipitation, MM = Missing Value Source: Averaged Metar Reports

Daily Weather History Graph

Daily Weather History Graph

Search for Another Location

Airport or City:

Astronomy

Aug. 29, 2019 Rise Set
Actual Time 7:02 AM +08 7:14 PM +08
Civil Twilight 6:41 AM +08 7:35 PM +08
Nautical Twilight 6:16 AM +08 7:59 PM +08
Astronomical Twilight 5:52 AM +08 8:23 PM +08
Moon 5:42 AM +08 (8/29) 6:20 PM +08 (8/29)
Length of Visible Light 12h 53m
Length of Day
12h 11m
Waning Crescent, 2% of the Moon is Illuminated
Aug 29
Waning Crescent
Aug 30
New
Sep 6
First Quarter
Sep 14
Full
Sep 22
Last Quarter

Hourly Weather History & Observations

Time (+08) Temp. Heat Index Dew Point Humidity Pressure Visibility Wind Dir Wind Speed Gust Speed Precip Events Conditions
12:00 AM 73.4 °F - 71.6 °F 94% 29.89 in 6.2 mi Calm Calm - N/A Rain Light Rain
1:00 AM 73.4 °F - 71.6 °F 94% 29.89 in 6.2 mi NNW 3.5 mph - N/A Rain Light Rain
2:00 AM 74 °F - 72 °F 90% 29.86 in 6 mi Calm Calm - - Rain Light Rain
2:00 AM 73.4 °F - 71.6 °F 94% 29.86 in 6.2 mi Calm Calm - N/A Rain Light Rain
3:00 AM 73.4 °F - 71.6 °F 94% 29.80 in 6.2 mi Calm Calm - N/A Rain Light Rain
4:00 AM 73.4 °F - 71.6 °F 94% 29.77 in 6.2 mi Variable 3.5 mph - N/A   Mostly Cloudy
5:00 AM 74 °F - 72 °F 91% 29.78 in 6 mi SSW 3.5 mph - -   Haze
5:00 AM 73.4 °F - 71.6 °F 94% 29.77 in 6.2 mi Variable 3.5 mph - N/A   Mostly Cloudy
6:00 AM 73.4 °F - 71.6 °F 94% 29.77 in 5.6 mi Variable 3.5 mph - N/A   Mostly Cloudy
7:00 AM 73.4 °F - 71.6 °F 94% 29.80 in 6.2 mi Variable 3.5 mph - N/A   Mostly Cloudy
8:00 AM 76 °F - 72 °F 84% 29.83 in 6 mi SW 4.6 mph - -   Haze
8:00 AM 77.0 °F - 71.6 °F 83% 29.83 in 6.2 mi SW 4.6 mph - N/A   Mostly Cloudy
9:00 AM 78.8 °F - 73.4 °F 83% 29.86 in 6.2 mi SSW 5.8 mph - N/A   Mostly Cloudy
10:00 AM 82.4 °F 89.5 °F 75.2 °F 79% 29.83 in 6.2 mi Variable 6.9 mph - N/A   Mostly Cloudy
11:00 AM 84 °F - 76 °F 71% 29.84 in 7 mi SSW 5.8 mph - -   Haze
11:00 AM 84.2 °F 92.3 °F 75.2 °F 74% 29.83 in 6.2 mi Variable 5.8 mph - N/A   Mostly Cloudy
12:00 PM 86.0 °F 96.9 °F 77.0 °F 74% 29.83 in 6.2 mi Variable 4.6 mph - N/A   Mostly Cloudy
1:00 PM 89.6 °F 102.2 °F 77.0 °F 66% 29.80 in 6.2 mi Variable 6.9 mph - N/A   Mostly Cloudy
2:00 PM 90 °F - 78 °F 60% 29.78 in 9 mi SSW 8.1 mph - -   Haze
2:00 PM 91.4 °F 105.1 °F 77.0 °F 63% 29.77 in 6.2 mi Variable 8.1 mph - N/A   Mostly Cloudy
4:00 PM 91.4 °F 105.1 °F 77.0 °F 63% 29.74 in 5.0 mi South 5.8 mph - N/A   Mostly Cloudy
5:00 PM 80 °F - 75 °F 81% 29.72 in 6 mi West 2.3 mph - - Rain Light Rain Showers
5:00 PM 78.8 °F - 75.2 °F 89% 29.71 in 6.2 mi Variable 2.3 mph - N/A   Mostly Cloudy
6:00 PM 82.4 °F 90.9 °F 77.0 °F 84% 29.71 in 6.2 mi Variable 2.3 mph - N/A   Mostly Cloudy
7:00 PM 80.6 °F 87.1 °F 77.0 °F 89% 29.74 in 5.0 mi West 3.5 mph - N/A   Mostly Cloudy
8:00 PM 80 °F - 76 °F 86% 29.76 in 6 mi Calm Calm - -   Partly Cloudy
8:00 PM 80.6 °F 87.1 °F 77.0 °F 89% 29.74 in 5.6 mi Calm Calm - N/A   Mostly Cloudy
9:00 PM 78.8 °F - 77.0 °F 94% 29.77 in 5.6 mi Calm Calm - N/A   Mostly Cloudy
10:00 PM 78.8 °F - 75.2 °F 89% 29.80 in 6.2 mi Variable 2.3 mph - N/A   Mostly Cloudy
11:00 PM 78.8 °F - 75.2 °F 89% 29.83 in 6.2 mi Variable 1.2 mph - N/A   Mostly Cloudy